sat.trackr.live / text

‹ back to catalog

ICEYE-X37

NORAD 59102 · 2024-043E

PAYLOAD ACTIVE UNKNOWN

§ Identity

Operator
Country
US
Launch date
2024-03-04
Launch site
AFWTR
Launch vehicle
Mass (kg)
RCS (m²)

External: N2YO · Heavens-Above · Gunter

§ Orbital elements

Epoch: 2026-09-22T14:58:17.182272Z

Period
95.57 min
Inclination
97.8436°
Eccentricity
0.0015915
Mean motion
15.06728987 rev/d
Perigee alt
535.2 km
Apogee alt
557.2 km
Semi-major
6,924.3 km
B*
1.4357e-4
RAAN
44.2766°
Arg perigee
43.1886°
Mean anomaly
317.0586°
Rev number
13,975

§ Raw data

ICEYE-X371 59102U 24043E   26265.62380998  .00002073  00000+0  14357-3 0  99902 59102  97.8436  44.2766 0015915  43.1886 317.0586 15.06728987139754

JSON: /api/v1/satellites/59102 · /tle

For live sub-satellite position, see the globe view (requires WebGL).

§ Visibility from observer

Set your observer location to see the next 7 days of passes ≥ 10°. The values pass through the URL so the page stays shareable.

No JS? Fill the form by hand. The geolocation button needs JavaScript.

§ Radio — SatNOGS DB

ModeDescriptionDownlinkUplink
BPSK S-band telemetry 2.264 GHz

1 transmitter · refreshed weekly from db.satnogs.org